Regional Weather Roundup
Issued by NWS

Home | Current Version | Previous Version | Graphics & Text | Print | Product List | Glossary On
Versions: 1 2 3 4 5 6 7 8 9 10 11 12 13 14 15 16 17 18 19 20 21 22 23 24 25 26 27 28 29 30 31 32 33 34 35 36 37 38 39 40 41 42 43 44 45 46 47 48 49 50
000
ASUS43 KIND 281909
RWRIN

WEATHER ROUNDUP FOR INDIANA
NATIONAL WEATHER SERVICE INDIANAPOLIS IN
300 PM EDT MON JUL 28 2014

NOTE: "FAIR" INDICATES FEW OR NO CLOUDS BELOW 12,000 FEET WITH NO
SIGNIFICANT WEATHER AND/OR OBSTRUCTIONS TO VISIBILITY.

* - STATION DOES NOT REPORT WEATHER SUCH AS PRECIPITATION OR FOG.

+ - STATION NOT QUALITY CONTROLLED BY THE NATIONAL WEATHER SERVICE.
    USE DATA WITH CAUTION...ESPECIALLY DEWPOINT AND RELATIVE
    HUMIDITY OBSERVATIONS.

INZ001>003-010>013-019-020-282000-
NORTHWEST INDIANA

CITY           SKY/WX    TMP DP  RH WIND       PRES   REMARKS
GARY /AIRPORT/ MOSUNNY   66  48  52 N21G32    30.10S
KNOX *+        CLOUDY    62  50  66 NW13G21   30.05S
LA PORTE +     CLOUDY    60  50  69 N17       30.07S
MICHIGAN CITY+ CLOUDY    59  46  63 N12G20    30.08S
MONTICELLO +   CLOUDY    64  55  71 NW12G17   30.05S
RENSSELAER +   MOSUNNY   68  55  64 N14G20    30.07S
VALPARAISO     CLOUDY    62  50  64 NW9G20    30.08R

$$

LMZ046-743>745-282000-
SOUTHERN LAKE MICHIGAN

STATION/POSITION TIME  TEMP WIND        PRES
                       AIR  DIR/SP/G
                 (UTC) (F)  (DEG/KT/KT) (MB)
MICHIGAN CITY    1900   58  320/ 21/ 25   N/A

$$

INZ004-005-014>016-021>024-282000-
NORTH CENTRAL INDIANA

CITY           SKY/WX    TMP DP  RH WIND       PRES   REMARKS
GOSHEN         CLOUDY    65  55  70 NW14G23   30.01R
LOGANSPORT +   CLOUDY    63  54  72 NW10G18   30.06R
PERU/GRISSOM   CLOUDY    66  58  73 NW16G23   30.04R
ROCHESTER +    CLOUDY    64  52  63 NW13G21   30.05R
SOUTH BEND     CLOUDY    63  49  60 NW15G24   30.04S
WARSAW +       CLOUDY    63  54  72 NW14G24   30.02R

$$

INZ006>009-017-018-025>027-282000-
NORTHEAST INDIANA

CITY           SKY/WX    TMP DP  RH WIND       PRES   REMARKS
ANGOLA *+      MOSUNNY   72  64  78 VRB6      29.97R
AUBURN +       PTSUNNY   70  52  52 W12G18    29.98S
FORT WAYNE     PTSUNNY   71  57  61 NW10G18   29.98S
HUNTINGTON +   CLOUDY    69  56  63 NW8       29.99R

$$

INZ028-029-035-036-043>045-051>053-282000-
WEST CENTRAL INDIANA

CITY           SKY/WX    TMP DP  RH WIND       PRES   REMARKS
GREENCASTLE +  MOSUNNY   70  54  56 NW15      30.04S
LAFAYETTE      MOSUNNY   70  54  56 N18G24    30.05R
TERRE HAUTE    PTSUNNY   74  56  53 NW15G21   30.04S

$$

INZ030>032-037>040-046>048-054>057-064-065-282000-
CENTRAL INDIANA

CITY           SKY/WX    TMP DP  RH WIND       PRES   REMARKS
ANDERSON       PTSUNNY   72  55  56 NW12G29   30.01S
CP ATTERBURY + PTSUNNY   70  57  64 N14       30.02S
COLUMBUS       CLOUDY    68  61  77 N8        30.02S
GREENWOOD *+   PTSUNNY   72  61  68 NW9       30.02
INDIANAPOLIS   PTSUNNY   70  56  61 NW13G20   30.01S
-EAGLE CREEK   PTSUNNY   70  55  59 N12       30.01F
KOKOMO *+      CLOUDY    68  55  64 N17       30.03R
MARION +       PTSUNNY   69  56  64 NW12G20   30.01R
MT COMFORT *+  MOSUNNY   72  64  78 NW10      30.01S
SHELBYVILLE    CLOUDY    72  59  63 NW12      30.00S
ZIONSVILLE +   MOSUNNY   70  55  59 NW12G17   30.03S

$$

INZ033-034-041-042-049-050-058-059-282000-
EAST CENTRAL INDIANA

CITY           SKY/WX    TMP DP  RH WIND       PRES   REMARKS
MUNCIE         MOSUNNY   72  57  59 NW14G22   29.99S

$$

INZ060-061-067>069-081>083-085>088-282000-
SOUTHWEST INDIANA

CITY           SKY/WX    TMP DP  RH WIND       PRES   REMARKS
EVANSVILLE     PTSUNNY   78  58  49 NW10      30.04S
WASHINGTON +   CLOUDY    73  61  65 NW12      30.03S

$$

INZ062-063-066-070>080-084-089>092-282000-
SOUTH CENTRAL AND SOUTHEAST INDIANA

CITY           SKY/WX    TMP DP  RH WIND       PRES   REMARKS
BEDFORD +      CLOUDY    72  57  60 W6        30.02
BLOOMINGTON    CLOUDY    72  58  61 N9        30.02F
NORTH VERNON + CLOUDY    68  61  77 NW12      30.02

$$



USA.gov is the U.S. government's official web portal to all federal, state and local government web resources and services.